﻿"﻿最高氣溫 (攝氏度) - �ʤh�f"
"Maximum Temperature (°C) - King's Park"
年/Year,月/Month,日/Day,數值/Value,"數據完整性/data Completeness"
1992,7,1,31.8,#
1992,7,2,31.6,#
1992,7,3,32.0,C
1992,7,4,30.7,C
1992,7,5,31.0,C
1992,7,6,30.4,#
1992,7,7,27.6,#
1992,7,8,28.8,#
1992,7,9,30.9,#
1992,7,10,30.0,C
1992,7,11,31.4,C
1992,7,12,31.2,C
1992,7,13,31.1,C
1992,7,14,31.3,#
1992,7,15,31.7,#
1992,7,16,31.8,C
1992,7,17,30.3,#
1992,7,18,26.9,C
1992,7,19,30.1,C
1992,7,20,31.2,#
1992,7,21,31.0,#
1992,7,22,28.6,#
1992,7,23,27.7,C
1992,7,24,31.0,C
1992,7,25,31.3,C
1992,7,26,30.9,C
1992,7,27,31.6,C
1992,7,28,32.4,#
1992,7,29,31.3,C
1992,7,30,31.4,#
1992,7,31,31.9,C
1992,8,1,31.9,C
1992,8,2,30.7,C
1992,8,3,32.0,#
1992,8,4,31.8,#
1992,8,5,31.8,#
1992,8,6,31.8,#
1992,8,7,33.0,#
1992,8,8,32.9,C
1992,8,9,31.2,C
1992,8,10,32.2,#
1992,8,11,31.4,C
1992,8,12,31.7,#
1992,8,13,32.1,#
1992,8,14,31.8,#
1992,8,15,32.4,C
1992,8,16,30.8,C
1992,8,17,33.4,C
1992,8,18,31.8,#
1992,8,19,31.7,C
1992,8,20,30.3,C
1992,8,21,27.5,#
1992,8,22,29.4,C
1992,8,23,31.1,C
1992,8,24,30.5,#
1992,8,25,33.0,#
1992,8,26,31.7,C
1992,8,27,32.2,#
1992,8,28,32.6,C
1992,8,29,34.7,C
1992,8,30,34.7,C
1992,8,31,33.8,C
1992,9,1,33.6,C
1992,9,2,33.5,C
1992,9,3,33.7,C
1992,9,4,33.5,C
1992,9,5,33.6,#
1992,9,6,28.6,C
1992,9,7,27.5,C
1992,9,8,31.5,#
1992,9,9,32.5,C
1992,9,10,31.5,C
1992,9,11,31.8,#
1992,9,12,31.7,C
1992,9,13,32.3,C
1992,9,14,32.1,#
1992,9,15,32.6,#
1992,9,16,32.2,#
1992,9,17,31.7,#
1992,9,18,29.8,C
1992,9,19,29.5,C
1992,9,20,31.2,C
1992,9,21,33.1,#
1992,9,22,32.8,#
1992,9,23,31.2,#
1992,9,24,33.5,C
1992,9,25,34.3,C
1992,9,26,31.2,C
1992,9,27,28.7,C
1992,9,28,31.2,#
1992,9,29,29.8,C
1992,9,30,30.5,C
1992,10,1,30.6,C
1992,10,2,31.7,C
1992,10,3,32.2,C
1992,10,4,31.5,C
1992,10,5,28.2,C
1992,10,6,28.5,C
1992,10,7,28.6,C
1992,10,8,30.0,#
1992,10,9,29.7,#
1992,10,10,29.7,#
1992,10,11,28.5,C
1992,10,12,28.8,#
1992,10,13,27.5,#
1992,10,14,26.3,#
1992,10,15,27.4,#
1992,10,16,27.7,#
1992,10,17,27.4,C
1992,10,18,28.0,C
1992,10,19,27.9,C
1992,10,20,27.7,#
1992,10,21,27.5,#
1992,10,22,27.9,C
1992,10,23,28.2,C
1992,10,24,27.2,C
1992,10,25,27.4,C
1992,10,26,27.3,#
1992,10,27,27.8,#
1992,10,28,29.0,C
1992,10,29,28.9,C
1992,10,30,30.3,#
1992,10,31,27.8,C
1992,11,1,28.6,C
1992,11,2,26.1,C
1992,11,3,27.1,#
1992,11,4,28.7,C
1992,11,5,28.7,C
1992,11,6,26.4,C
1992,11,7,26.4,C
1992,11,8,26.4,C
1992,11,9,20.9,#
1992,11,10,20.0,#
1992,11,11,22.0,C
1992,11,12,25.4,#
1992,11,13,27.2,#
1992,11,14,21.4,C
1992,11,15,24.0,C
1992,11,16,27.5,#
1992,11,17,26.2,#
1992,11,18,26.4,C
1992,11,19,28.9,C
1992,11,20,22.7,C
1992,11,21,20.8,C
1992,11,22,23.2,C
1992,11,23,25.2,#
1992,11,24,26.6,C
1992,11,25,26.2,#
1992,11,26,24.6,#
1992,11,27,22.7,C
1992,11,28,22.9,C
1992,11,29,23.7,C
1992,11,30,25.8,C
1992,12,1,25.1,#
1992,12,2,24.5,C
1992,12,3,23.8,C
1992,12,4,23.0,C
1992,12,5,26.1,C
1992,12,6,25.7,C
1992,12,7,26.2,#
1992,12,8,24.1,#
1992,12,9,26.4,C
1992,12,10,27.0,C
1992,12,11,23.1,#
1992,12,12,23.8,#
1992,12,13,21.7,#
1992,12,14,23.4,C
1992,12,15,15.8,#
1992,12,16,20.9,#
1992,12,17,22.7,#
1992,12,18,24.0,C
1992,12,19,26.1,C
1992,12,20,25.1,C
1992,12,21,27.9,#
1992,12,22,24.5,#
1992,12,23,19.8,C
1992,12,24,16.1,C
1992,12,25,17.7,C
1992,12,26,18.2,C
1992,12,27,23.1,C
1992,12,28,25.8,C
1992,12,29,20.6,#
1992,12,30,21.2,C
1992,12,31,22.7,C
1993,1,1,21.4,C
1993,1,2,22.9,C
1993,1,3,22.0,C
1993,1,4,24.7,C
1993,1,5,20.7,#
1993,1,6,21.0,#
1993,1,7,22.4,#
1993,1,8,21.2,#
1993,1,9,25.2,C
1993,1,10,26.8,#
1993,1,11,21.0,#
1993,1,12,22.3,#
1993,1,13,20.4,C
1993,1,14,21.4,#
1993,1,15,14.3,C
1993,1,16,11.7,C
1993,1,17,8.7,#
1993,1,18,7.8,#
1993,1,19,11.4,#
1993,1,20,12.3,C
1993,1,21,11.3,#
1993,1,22,12.8,#
1993,1,23,11.7,C
1993,1,24,13.7,C
1993,1,25,16.7,#
1993,1,26,17.3,#
1993,1,27,17.0,#
1993,1,28,15.4,C
1993,1,29,17.9,#
1993,1,30,20.3,C
1993,1,31,20.8,#
1993,2,1,20.3,C
1993,2,2,18.2,#
1993,2,3,21.5,C
1993,2,4,24.6,C
1993,2,5,24.6,#
1993,2,6,23.1,C
1993,2,7,23.1,C
1993,2,8,19.8,C
1993,2,9,22.5,#
1993,2,10,19.9,#
1993,2,11,21.7,C
1993,2,12,21.0,C
1993,2,13,21.7,C
1993,2,14,21.1,C
1993,2,15,23.5,C
1993,2,16,24.2,#
1993,2,17,22.6,#
1993,2,18,19.2,C
1993,2,19,20.7,C
1993,2,20,24.0,C
1993,2,21,23.8,#
1993,2,22,23.0,C
1993,2,23,17.2,#
1993,2,24,19.5,C
1993,2,25,17.6,#
1993,2,26,18.8,C
1993,2,27,21.0,C
1993,2,28,20.0,C
1993,3,1,16.4,C
1993,3,2,17.7,#
1993,3,3,18.5,#
1993,3,4,21.6,#
1993,3,5,20.9,#
1993,3,6,26.0,C
1993,3,7,24.1,C
1993,3,8,20.5,C
1993,3,9,21.8,#
1993,3,10,22.8,#
1993,3,11,23.9,#
1993,3,12,22.6,C
1993,3,13,19.2,C
1993,3,14,25.2,C
1993,3,15,28.0,C
1993,3,16,25.6,#
1993,3,17,17.7,C
1993,3,18,17.1,C
1993,3,19,15.2,#
1993,3,20,14.8,C
1993,3,21,19.0,C
1993,3,22,20.5,C
1993,3,23,22.4,#
1993,3,24,27.4,C
1993,3,25,27.4,#
1993,3,26,27.9,#
1993,3,27,27.5,C
1993,3,28,28.4,#
1993,3,29,24.2,C
1993,3,30,19.1,#
1993,3,31,21.8,C
1993,4,1,26.8,C
1993,4,2,26.1,#
1993,4,3,28.2,C
1993,4,4,27.8,#
1993,4,5,23.2,C
1993,4,6,18.9,C
1993,4,7,17.7,#
1993,4,8,17.9,#
1993,4,9,18.4,C
1993,4,10,21.6,C
1993,4,11,21.4,C
1993,4,12,22.1,C
1993,4,13,22.6,C
1993,4,14,24.3,C
1993,4,15,24.8,C
1993,4,16,26.7,C
1993,4,17,22.5,C
1993,4,18,21.4,#
1993,4,19,22.6,C
1993,4,20,25.3,#
1993,4,21,21.8,C
1993,4,22,27.4,C
1993,4,23,28.0,C
1993,4,24,29.1,C
1993,4,25,29.3,C
1993,4,26,23.5,C
1993,4,27,26.5,#
1993,4,28,29.2,#
1993,4,29,27.7,C
1993,4,30,26.3,C
1993,5,1,25.8,C
1993,5,2,28.1,C
1993,5,3,26.3,C
1993,5,4,23.2,C
1993,5,5,25.1,C
1993,5,6,29.8,C
1993,5,7,30.1,#
1993,5,8,30.7,C
1993,5,9,29.1,C
1993,5,10,28.0,C
1993,5,11,27.3,#
1993,5,12,29.2,C
1993,5,13,30.8,C
1993,5,14,31.2,#
1993,5,15,27.2,C
1993,5,16,27.8,C
1993,5,17,30.0,#
1993,5,18,30.0,C
1993,5,19,30.4,C
1993,5,20,30.5,C
1993,5,21,31.4,C
1993,5,22,29.5,C
1993,5,23,29.3,#
1993,5,24,27.5,C
1993,5,25,26.1,C
1993,5,26,26.9,#
1993,5,27,29.6,#
1993,5,28,31.8,#
1993,5,29,28.1,C
1993,5,30,29.5,C
1993,5,31,29.4,#
1993,6,1,30.2,C
1993,6,2,29.2,C
1993,6,3,25.7,#
1993,6,4,29.4,C
1993,6,5,29.3,C
1993,6,6,31.1,C
1993,6,7,30.7,#
1993,6,8,31.5,#
1993,6,9,29.1,#
1993,6,10,26.1,C
1993,6,11,29.9,#
1993,6,12,31.2,C
1993,6,13,30.9,C
1993,6,14,31.6,C
1993,6,15,31.2,#
1993,6,16,28.8,#
1993,6,17,28.4,#
1993,6,18,30.3,#
1993,6,19,31.1,C
1993,6,20,31.3,C
1993,6,21,31.9,C
1993,6,22,32.1,#
1993,6,23,31.2,C
1993,6,24,31.1,C
1993,6,25,32.0,#
1993,6,26,31.9,C
1993,6,27,30.2,C
1993,6,28,30.0,#
1993,6,29,30.7,#
1993,6,30,30.5,#
1993,7,1,30.8,#
1993,7,2,30.8,C
1993,7,3,31.1,C
1993,7,4,31.3,C
1993,7,5,31.9,C
1993,7,6,31.7,#
1993,7,7,31.3,C
1993,7,8,31.5,#
1993,7,9,32.4,C
1993,7,10,32.9,#
1993,7,11,30.9,C
1993,7,12,30.8,C
1993,7,13,29.0,#
1993,7,14,31.8,C
1993,7,15,31.7,C
1993,7,16,32.1,#
1993,7,17,31.6,#
1993,7,18,31.4,C
1993,7,19,31.6,C
1993,7,20,31.9,C
1993,7,21,31.7,#
1993,7,22,31.5,C
1993,7,23,31.5,C
1993,7,24,31.5,C
1993,7,25,32.2,#
1993,7,26,31.8,C
1993,7,27,32.1,C
1993,7,28,32.0,#
1993,7,29,32.6,C
1993,7,30,32.1,C
1993,7,31,29.6,C
1993,8,1,30.8,#
1993,8,2,31.5,#
1993,8,3,32.0,C
1993,8,4,31.4,#
1993,8,5,32.4,#
1993,8,6,32.1,#
1993,8,7,31.9,#
1993,8,8,31.4,C
1993,8,9,30.6,C
1993,8,10,31.8,#
1993,8,11,32.6,#
1993,8,12,31.9,#
1993,8,13,29.1,C
1993,8,14,31.1,C
1993,8,15,29.3,#
1993,8,16,30.9,#
1993,8,17,29.5,#
1993,8,18,31.8,C
1993,8,19,32.7,#
1993,8,20,27.7,C
1993,8,21,28.1,#
1993,8,22,30.0,#
1993,8,23,31.3,#
1993,8,24,30.2,C
1993,8,25,32.6,C
1993,8,26,32.2,C
1993,8,27,32.6,C
1993,8,28,31.2,C
1993,8,29,31.2,C
1993,8,30,30.5,#
1993,8,31,30.4,C
1993,9,1,30.0,C
1993,9,2,30.5,C
1993,9,3,32.1,C
1993,9,4,31.0,C
1993,9,5,31.4,C
1993,9,6,30.2,C
1993,9,7,30.6,#
1993,9,8,30.5,C
1993,9,9,30.5,C
1993,9,10,30.6,C
1993,9,11,30.9,C
1993,9,12,30.6,#
1993,9,13,32.1,#
1993,9,14,31.3,#
1993,9,15,31.4,#
1993,9,16,31.3,#
1993,9,17,28.2,C
1993,9,18,29.4,#
1993,9,19,31.5,C
1993,9,20,31.9,C
1993,9,21,32.7,C
1993,9,22,31.7,#
1993,9,23,28.0,C
1993,9,24,25.4,#
1993,9,25,24.6,C
1993,9,26,25.5,C
1993,9,27,29.0,C
1993,9,28,28.8,C
1993,9,29,29.4,#
1993,9,30,31.6,#
1993,10,1,28.4,C
1993,10,2,25.5,C
1993,10,3,28.6,C
1993,10,4,29.2,C
1993,10,5,29.0,C
1993,10,6,27.9,C
1993,10,7,28.0,#
1993,10,8,29.0,C
1993,10,9,29.1,#
1993,10,10,29.1,C
1993,10,11,28.6,C
1993,10,12,29.1,#
1993,10,13,25.5,#
1993,10,14,28.1,C
1993,10,15,28.1,C
1993,10,16,29.5,C
1993,10,17,29.7,C
1993,10,18,25.8,C
1993,10,19,27.4,#
1993,10,20,28.1,#
1993,10,21,28.2,C
1993,10,22,29.3,#
1993,10,23,29.2,#
1993,10,24,27.3,#
1993,10,25,25.4,C
1993,10,26,28.3,C
1993,10,27,26.2,C
1993,10,28,27.8,C
1993,10,29,27.9,C
1993,10,30,24.4,C
1993,10,31,23.1,C
1993,11,1,24.7,C
1993,11,2,25.6,#
1993,11,3,24.6,#
1993,11,4,24.3,#
1993,11,5,24.4,C
1993,11,6,25.6,C
1993,11,7,29.9,C
1993,11,8,27.5,C
1993,11,9,28.8,C
1993,11,10,28.5,C
1993,11,11,28.1,C
1993,11,12,25.0,C
1993,11,13,26.2,C
1993,11,14,26.3,#
1993,11,15,26.4,C
1993,11,16,26.4,C
1993,11,17,27.9,#
1993,11,18,25.4,#
1993,11,19,22.7,C
1993,11,20,26.9,C
1993,11,21,23.0,C
1993,11,22,19.1,#
1993,11,23,20.9,C
1993,11,24,15.9,C
1993,11,25,16.6,#
1993,11,26,20.1,C
1993,11,27,23.3,#
1993,11,28,21.3,C
1993,11,29,24.7,C
1993,11,30,23.3,C
1993,12,1,24.4,C
1993,12,2,24.2,C
1993,12,3,27.2,C
1993,12,4,21.0,C
1993,12,5,19.4,C
1993,12,6,20.7,C
1993,12,7,22.1,C
1993,12,8,21.5,C
1993,12,9,25.3,C
1993,12,10,23.5,C
1993,12,11,21.5,C
1993,12,12,19.5,C
1993,12,13,20.3,#
1993,12,14,17.3,C
1993,12,15,13.4,#
1993,12,16,16.3,C
1993,12,17,14.4,#
1993,12,18,14.6,C
1993,12,19,19.5,C
1993,12,20,21.2,#
1993,12,21,17.9,#
1993,12,22,17.2,#
1993,12,23,19.1,#
1993,12,24,20.3,C
1993,12,25,21.1,C
1993,12,26,23.0,C
1993,12,27,20.9,C
1993,12,28,20.7,#
1993,12,29,22.4,C
1993,12,30,24.4,#
1993,12,31,23.2,C
1994,1,1,19.4,C
1994,1,2,21.2,C
1994,1,3,25.2,C
1994,1,4,21.9,C
1994,1,5,22.6,C
1994,1,6,27.2,C
1994,1,7,21.6,#
1994,1,8,21.8,C
1994,1,9,24.2,#
1994,1,10,23.5,C
1994,1,11,20.9,C
1994,1,12,22.4,C
1994,1,13,19.7,C
1994,1,14,14.7,C
1994,1,15,16.3,C
1994,1,16,21.8,C
1994,1,17,26.1,C
1994,1,18,26.1,C
1994,1,19,14.9,C
1994,1,20,13.8,C
1994,1,21,15.2,C
1994,1,22,10.8,C
1994,1,23,18.2,#
1994,1,24,19.1,C
1994,1,25,21.6,#
1994,1,26,22.1,C
1994,1,27,21.7,C
1994,1,28,22.0,C
1994,1,29,19.8,C
1994,1,30,16.2,#
1994,1,31,23.8,C
1994,2,1,27.0,#
1994,2,2,20.4,#
1994,2,3,19.1,#
1994,2,4,20.0,#
1994,2,5,24.2,C
1994,2,6,24.6,#
1994,2,7,21.2,C
1994,2,8,23.9,C
1994,2,9,23.0,C
1994,2,10,16.6,C
1994,2,11,22.8,#
1994,2,12,20.5,C
1994,2,13,15.5,C
1994,2,14,21.4,C
1994,2,15,19.8,C
1994,2,16,17.5,#
1994,2,17,16.8,C
1994,2,18,15.9,C
1994,2,19,16.8,C
1994,2,20,20.7,C
1994,2,21,21.0,#
1994,2,22,18.2,C
1994,2,23,21.3,C
1994,2,24,21.3,C
1994,2,25,15.3,C
1994,2,26,13.9,C
1994,2,27,13.4,C
1994,2,28,14.4,C
1994,3,1,15.1,C
1994,3,2,15.5,#
1994,3,3,18.8,C
1994,3,4,19.6,#
1994,3,5,22.8,C
1994,3,6,21.4,C
1994,3,7,26.1,C
1994,3,8,25.6,C
1994,3,9,20.2,#
1994,3,10,17.7,#
1994,3,11,17.5,#
1994,3,12,23.1,#
1994,3,13,22.3,#
1994,3,14,14.9,C
1994,3,15,15.4,C
1994,3,16,20.6,#
1994,3,17,18.8,C
1994,3,18,19.0,#
1994,3,19,19.1,C
1994,3,20,20.8,C
1994,3,21,19.6,C
1994,3,22,18.6,C
1994,3,23,22.4,C
1994,3,24,21.6,#
1994,3,25,21.9,#
1994,3,26,25.4,C
1994,3,27,20.1,#
1994,3,28,22.7,#
1994,3,29,26.1,#
1994,3,30,22.8,#
1994,3,31,22.0,#
1994,4,1,26.3,#
1994,4,2,27.0,#
1994,4,3,26.2,#
1994,4,4,27.7,#
1994,4,5,27.9,#
1994,4,6,29.2,#
1994,4,7,28.7,#
1994,4,8,28.2,#
1994,4,9,24.2,C
1994,4,10,22.1,C
1994,4,11,25.6,C
1994,4,12,28.9,#
1994,4,13,21.0,C
1994,4,14,19.4,C
1994,4,15,25.7,C
1994,4,16,25.4,C
1994,4,17,27.4,#
1994,4,18,29.4,C
1994,4,19,29.5,C
1994,4,20,30.4,#
1994,4,21,30.5,#
1994,4,22,30.1,#
1994,4,23,31.0,C
1994,4,24,31.1,C
1994,4,25,31.1,#
1994,4,26,30.6,#
1994,4,27,31.8,#
1994,4,28,31.5,#
1994,4,29,30.2,#
1994,4,30,31.5,C
1994,5,1,31.6,C
1994,5,2,30.8,C
1994,5,3,28.1,C
1994,5,4,25.7,C
1994,5,5,28.0,C
1994,5,6,27.8,C
1994,5,7,28.3,C
1994,5,8,30.1,C
1994,5,9,28.6,#
1994,5,10,31.1,#
1994,5,11,31.5,C
1994,5,12,31.4,C
1994,5,13,31.3,#
1994,5,14,31.9,C
1994,5,15,29.8,C
1994,5,16,32.6,#
1994,5,17,31.8,C
1994,5,18,30.5,C
1994,5,19,27.8,C
1994,5,20,28.4,#
1994,5,21,30.8,#
1994,5,22,31.0,C
1994,5,23,32.2,#
1994,5,24,31.7,#
1994,5,25,31.7,C
1994,5,26,32.2,C
1994,5,27,32.6,C
1994,5,28,26.4,C
1994,5,29,31.3,C
1994,5,30,31.2,C
1994,5,31,26.9,C
1994,6,1,29.9,#
1994,6,2,29.2,C
1994,6,3,27.8,#
1994,6,4,27.5,C
1994,6,5,32.7,C
1994,6,6,30.8,#
1994,6,7,28.1,#
1994,6,8,27.9,C
1994,6,9,28.8,C
1994,6,10,28.3,C
1994,6,11,29.1,#
1994,6,12,29.5,#
1994,6,13,30.0,C
1994,6,14,29.6,C
1994,6,15,29.3,C
1994,6,16,29.8,#
1994,6,17,29.1,C
1994,6,18,28.1,C
1994,6,19,26.6,C
1994,6,20,28.0,#
1994,6,21,29.9,C
1994,6,22,31.2,#
1994,6,23,31.6,#
1994,6,24,30.9,#
1994,6,25,28.8,C
1994,6,26,31.3,C
1994,6,27,31.8,C
1994,6,28,32.3,C
1994,6,29,31.8,C
1994,6,30,32.1,C
1994,7,1,32.9,C
1994,7,2,33.5,#
1994,7,3,31.6,C
1994,7,4,28.7,C
1994,7,5,29.1,C
1994,7,6,31.5,C
1994,7,7,30.3,C
1994,7,8,29.5,C
1994,7,9,31.8,#
1994,7,10,34.3,#
1994,7,11,34.0,C
1994,7,12,31.5,#
1994,7,13,31.0,C
1994,7,14,29.8,#
1994,7,15,28.2,#
1994,7,16,32.5,C
1994,7,17,29.5,C
1994,7,18,31.7,#
1994,7,19,31.9,C
1994,7,20,30.8,#
1994,7,21,28.1,#
1994,7,22,27.2,#
1994,7,23,26.7,#
1994,7,24,25.0,C
1994,7,25,27.1,#
1994,7,26,29.9,#
1994,7,27,30.0,C
1994,7,28,30.8,C
1994,7,29,30.6,C
1994,7,30,30.4,C
1994,7,31,31.6,C
1994,8,1,32.0,C
1994,8,2,32.0,#
1994,8,3,33.4,C
1994,8,4,30.4,C
1994,8,5,29.3,#
1994,8,6,28.7,#
1994,8,7,27.9,#
1994,8,8,29.0,#
1994,8,9,28.1,C
1994,8,10,29.6,C
1994,8,11,30.8,#
1994,8,12,32.4,#
1994,8,13,29.8,C
1994,8,14,30.2,C
1994,8,15,26.9,C
1994,8,16,26.5,#
1994,8,17,28.0,#
1994,8,18,30.7,#
1994,8,19,31.5,C
1994,8,20,30.4,#
1994,8,21,30.8,C
1994,8,22,31.7,#
1994,8,23,32.2,C
1994,8,24,33.0,#
1994,8,25,32.4,C
1994,8,26,28.8,C
1994,8,27,27.9,C
1994,8,28,29.2,C
1994,8,29,31.3,C
1994,8,30,31.9,C
1994,8,31,32.2,C
1994,9,1,31.9,C
1994,9,2,32.6,#
1994,9,3,30.5,C
1994,9,4,30.9,C
1994,9,5,30.8,C
1994,9,6,31.0,#
1994,9,7,31.5,#
1994,9,8,30.0,C
1994,9,9,31.7,#
1994,9,10,30.9,#
1994,9,11,31.4,#
1994,9,12,28.4,#
1994,9,13,28.5,C
1994,9,14,27.6,C
1994,9,15,29.0,C
1994,9,16,29.7,C
1994,9,17,29.3,#
1994,9,18,25.6,C
1994,9,19,29.9,C
1994,9,20,29.7,#
1994,9,21,29.3,C
1994,9,22,31.0,C
1994,9,23,29.3,#
1994,9,24,28.6,#
1994,9,25,28.7,C
1994,9,26,30.1,#
1994,9,27,29.1,#
1994,9,28,27.5,#
1994,9,29,29.9,#
1994,9,30,30.5,C
1994,10,1,30.0,C
1994,10,2,29.0,C
1994,10,3,29.4,#
1994,10,4,29.7,C
1994,10,5,30.0,C
1994,10,6,28.2,C
1994,10,7,30.1,C
1994,10,8,29.9,C
1994,10,9,31.4,C
1994,10,10,31.0,C
1994,10,11,30.4,C
1994,10,12,29.9,C
1994,10,13,30.4,C
1994,10,14,29.4,C
1994,10,15,29.2,C
1994,10,16,30.9,C
1994,10,17,32.4,C
1994,10,18,30.3,C
1994,10,19,29.3,C
1994,10,20,23.8,C
1994,10,21,22.6,C
1994,10,22,22.6,C
1994,10,23,24.2,C
1994,10,24,24.8,#
1994,10,25,26.6,C
1994,10,26,26.3,#
1994,10,27,28.0,C
1994,10,28,28.4,#
1994,10,29,28.4,C
1994,10,30,26.1,C
1994,10,31,25.1,#
1994,11,1,25.7,C
1994,11,2,27.1,C
1994,11,3,27.9,C
1994,11,4,27.3,C
1994,11,5,26.8,C
1994,11,6,27.8,C
1994,11,7,28.4,#
1994,11,8,26.1,#
1994,11,9,27.6,#
1994,11,10,28.8,#
1994,11,11,27.6,C
1994,11,12,28.0,C
1994,11,13,27.6,C
1994,11,14,27.8,C
1994,11,15,29.3,C
1994,11,16,28.8,C
1994,11,17,29.0,#
1994,11,18,28.7,#
1994,11,19,27.3,C
1994,11,20,25.4,C
1994,11,21,28.0,#
1994,11,22,26.4,#
1994,11,23,25.2,C
1994,11,24,27.2,C
1994,11,25,26.6,#
1994,11,26,27.9,#
1994,11,27,26.0,#
1994,11,28,27.7,C
1994,11,29,27.5,C
1994,11,30,24.2,#
1994,12,1,27.6,#
1994,12,2,25.8,C
1994,12,3,23.3,C
1994,12,4,22.8,C
1994,12,5,23.8,#
1994,12,6,23.2,#
1994,12,7,24.4,#
1994,12,8,22.0,#
1994,12,9,25.0,#
1994,12,10,26.2,#
1994,12,11,25.8,#
1994,12,12,25.9,#
1994,12,13,20.3,#
1994,12,14,21.4,#
1994,12,15,20.3,#
1994,12,16,22.6,#
1994,12,17,23.1,C
1994,12,18,20.5,C
1994,12,19,20.0,C
1994,12,20,21.4,#
1994,12,21,17.1,C
1994,12,22,21.3,C
1994,12,23,23.2,C
1994,12,24,22.1,C
1994,12,25,20.2,C
1994,12,26,19.8,C
1994,12,27,20.7,C
1994,12,28,21.5,C
1994,12,29,21.4,C
1994,12,30,20.3,#
1994,12,31,22.9,C
1995,1,1,19.7,#
1995,1,2,19.2,#
1995,1,3,18.1,#
1995,1,4,16.7,#
1995,1,5,17.0,#
1995,1,6,18.3,#
1995,1,7,21.4,#
1995,1,8,23.9,#
1995,1,9,24.7,#
1995,1,10,19.8,C
1995,1,11,20.6,C
1995,1,12,19.4,C
1995,1,13,19.9,C
1995,1,14,16.7,C
1995,1,15,18.2,#
1995,1,16,19.8,#
1995,1,17,19.3,C
1995,1,18,20.3,C
1995,1,19,24.7,#
1995,1,20,21.8,C
1995,1,21,22.6,C
1995,1,22,25.3,C
1995,1,23,22.1,#
1995,1,24,15.0,#
1995,1,25,19.8,C
1995,1,26,19.7,C
1995,1,27,14.5,C
1995,1,28,13.9,C
1995,1,29,14.0,C
1995,1,30,13.1,C
1995,1,31,14.5,C
1995,2,1,15.9,C
1995,2,2,16.6,C
1995,2,3,16.7,#
1995,2,4,16.7,C
1995,2,5,16.7,C
1995,2,6,17.4,#
1995,2,7,19.2,#
1995,2,8,21.9,#
1995,2,9,21.2,#
1995,2,10,20.1,#
1995,2,11,20.9,C
1995,2,12,23.1,C
1995,2,13,23.3,#
1995,2,14,16.9,C
1995,2,15,15.4,C
1995,2,16,16.6,C
1995,2,17,16.8,C
1995,2,18,19.1,C
1995,2,19,18.0,#
1995,2,20,17.7,C
1995,2,21,14.4,#
1995,2,22,14.9,#
1995,2,23,15.9,#
1995,2,24,16.5,C
1995,2,25,15.2,#
1995,2,26,13.6,C
1995,2,27,15.2,C
1995,2,28,19.6,#
1995,3,1,16.4,C
1995,3,2,17.0,#
1995,3,3,23.3,#
1995,3,4,20.2,C
1995,3,5,18.3,C
1995,3,6,18.3,#
1995,3,7,23.1,#
1995,3,8,23.0,C
1995,3,9,23.4,#
1995,3,10,23.5,C
1995,3,11,18.8,C
1995,3,12,16.9,C
1995,3,13,15.6,#
1995,3,14,17.9,C
1995,3,15,22.2,C
1995,3,16,24.4,#
1995,3,17,25.0,#
1995,3,18,15.2,C
1995,3,19,17.3,C
1995,3,20,18.5,C
1995,3,21,25.4,#
1995,3,22,24.0,C
1995,3,23,24.3,C
1995,3,24,26.2,#
1995,3,25,21.2,C
1995,3,26,20.4,C
1995,3,27,17.1,#
1995,3,28,19.9,C
1995,3,29,22.1,#
1995,3,30,23.6,#
1995,3,31,22.8,C
1995,4,1,18.1,C
1995,4,2,16.7,#
1995,4,3,18.3,#
1995,4,4,17.2,C
1995,4,5,19.9,C
1995,4,6,21.7,C
1995,4,7,19.5,#
1995,4,8,24.4,C
1995,4,9,27.8,C
1995,4,10,26.4,C
1995,4,11,25.1,C
1995,4,12,23.1,#
1995,4,13,25.5,#
1995,4,14,26.9,C
1995,4,15,28.8,#
1995,4,16,29.5,C
1995,4,17,29.9,C
1995,4,18,28.2,#
1995,4,19,27.8,C
1995,4,20,22.5,C
1995,4,21,26.0,#
1995,4,22,29.7,C
1995,4,23,29.9,C
1995,4,24,26.7,C
1995,4,25,29.2,#
1995,4,26,27.9,C
1995,4,27,27.6,#
1995,4,28,29.1,C
1995,4,29,29.5,C
1995,4,30,29.5,C
1995,5,1,30.6,C
1995,5,2,30.8,C
1995,5,3,29.8,#
1995,5,4,27.3,#
1995,5,5,23.1,C
1995,5,6,27.0,C
1995,5,7,27.3,C
1995,5,8,27.1,#
1995,5,9,25.1,C
1995,5,10,30.0,C
1995,5,11,24.6,C
1995,5,12,24.6,C
1995,5,13,28.1,C
1995,5,14,29.4,C
1995,5,15,28.4,#
1995,5,16,22.1,#
1995,5,17,26.0,#
1995,5,18,27.8,C
1995,5,19,30.9,#
1995,5,20,31.5,#
1995,5,21,31.9,#
1995,5,22,26.7,#
1995,5,23,26.1,#
1995,5,24,27.9,#
1995,5,25,30.6,#
1995,5,26,32.6,#
1995,5,27,33.3,#
1995,5,28,31.8,C
1995,5,29,32.5,C
1995,5,30,33.4,C
1995,5,31,31.2,C
1995,6,1,32.6,C
1995,6,2,32.5,#
1995,6,3,33.3,C
1995,6,4,33.6,C
1995,6,5,29.6,C
1995,6,6,29.2,#
1995,6,7,28.3,#
1995,6,8,29.8,#
1995,6,9,29.3,#
1995,6,10,32.1,C
1995,6,11,27.0,C
1995,6,12,31.6,#
1995,6,13,31.9,#
1995,6,14,31.0,#
1995,6,15,30.6,#
1995,6,16,31.5,#
1995,6,17,30.6,#
1995,6,18,30.3,#
1995,6,19,31.6,C
1995,6,20,31.8,C
1995,6,21,31.6,C
1995,6,22,31.7,#
1995,6,23,32.1,#
1995,6,24,32.6,#
1995,6,25,32.3,C
1995,6,26,31.8,C
1995,6,27,32.3,#
1995,6,28,31.7,C
1995,6,29,32.4,#
1995,6,30,32.1,#
1995,7,1,31.8,C
1995,7,2,27.8,C
1995,7,3,28.2,#
1995,7,4,29.2,#
1995,7,5,30.5,#
1995,7,6,31.8,#
1995,7,7,32.3,#
1995,7,8,32.0,C
1995,7,9,30.2,#
1995,7,10,31.9,#
1995,7,11,32.3,#
1995,7,12,30.6,#
1995,7,13,26.3,C
1995,7,14,26.1,#
1995,7,15,26.2,#
1995,7,16,30.4,C
1995,7,17,31.8,#
1995,7,18,31.6,#
1995,7,19,32.0,#
1995,7,20,32.4,#
1995,7,21,32.3,C
1995,7,22,33.4,#
1995,7,23,32.6,C
1995,7,24,31.8,#
1995,7,25,29.8,#
1995,7,26,28.6,#
1995,7,27,25.6,#
1995,7,28,30.5,#
1995,7,29,31.4,C
1995,7,30,32.9,C
1995,7,31,31.6,#
1995,8,1,30.3,C
1995,8,2,28.5,#
1995,8,3,25.2,#
1995,8,4,26.2,#
1995,8,5,25.9,#
1995,8,6,27.7,#
1995,8,7,29.1,C
1995,8,8,29.9,C
1995,8,9,31.0,#
1995,8,10,33.3,C
1995,8,11,28.8,#
1995,8,12,27.1,#
1995,8,13,29.9,#
1995,8,14,27.5,#
1995,8,15,28.7,#
1995,8,16,30.1,C
1995,8,17,30.6,C
1995,8,18,30.9,C
1995,8,19,30.7,#
1995,8,20,32.2,C
1995,8,21,32.0,C
1995,8,22,32.1,#
1995,8,23,32.1,#
1995,8,24,30.0,C
1995,8,25,34.1,#
1995,8,26,31.8,C
1995,8,27,28.7,C
1995,8,28,29.3,C
1995,8,29,31.3,#
1995,8,30,31.8,C
1995,8,31,30.5,#
1995,9,1,30.2,#
1995,9,2,30.2,C
1995,9,3,32.1,C
1995,9,4,32.0,#
1995,9,5,33.8,C
1995,9,6,30.5,#
1995,9,7,31.1,#
1995,9,8,32.5,C
1995,9,9,32.7,C
1995,9,10,33.2,C
1995,9,11,33.0,C
1995,9,12,32.3,#
1995,9,13,32.4,C
1995,9,14,31.7,C
1995,9,15,31.8,#
1995,9,16,30.9,#
1995,9,17,29.8,#
1995,9,18,29.0,C
1995,9,19,27.5,#
1995,9,20,24.8,#
1995,9,21,26.8,C
1995,9,22,30.3,C
1995,9,23,30.8,C
1995,9,24,31.3,C
1995,9,25,29.9,#
1995,9,26,30.3,#
1995,9,27,29.7,#
1995,9,28,29.0,#
1995,9,29,30.4,C
1995,9,30,29.9,#
1995,10,1,31.2,#
1995,10,2,28.0,#
1995,10,3,27.5,#
1995,10,4,30.9,#
1995,10,5,26.7,#
1995,10,6,27.0,#
1995,10,7,28.7,#
1995,10,8,30.1,#
1995,10,9,28.8,#
1995,10,10,29.3,#
1995,10,11,26.7,#
1995,10,12,26.1,#
1995,10,13,26.1,#
1995,10,14,26.3,C
1995,10,15,24.9,#
1995,10,16,28.6,#
1995,10,17,27.3,#
1995,10,18,28.3,#
1995,10,19,28.0,#
1995,10,20,28.8,#
1995,10,21,28.4,#
1995,10,22,28.4,C
1995,10,23,29.3,#
1995,10,24,28.6,#
1995,10,25,26.8,#
1995,10,26,25.7,#
1995,10,27,26.2,#
1995,10,28,28.6,C
1995,10,29,28.6,C
1995,10,30,28.1,C
1995,10,31,28.4,#
1995,11,1,26.2,C
1995,11,2,25.1,C
1995,11,3,25.7,#
1995,11,4,26.5,C
1995,11,5,23.0,C
1995,11,6,25.0,#
1995,11,7,26.7,#
1995,11,8,25.8,#
1995,11,9,26.5,#
1995,11,10,27.4,#
1995,11,11,24.5,#
1995,11,12,25.7,C
1995,11,13,27.4,C
1995,11,14,23.2,#
1995,11,15,20.6,C
1995,11,16,24.1,#
1995,11,17,25.6,#
1995,11,18,25.4,C
1995,11,19,26.7,C
1995,11,20,23.9,C
1995,11,21,22.9,#
1995,11,22,23.6,C
1995,11,23,22.1,C
1995,11,24,19.0,#
1995,11,25,21.3,C
1995,11,26,24.7,#
1995,11,27,25.0,#
1995,11,28,23.1,#
1995,11,29,24.1,#
1995,11,30,23.6,#
1995,12,1,22.3,#
1995,12,2,22.3,#
1995,12,3,23.6,#
1995,12,4,21.4,#
1995,12,5,21.1,#
1995,12,6,19.2,C
1995,12,7,19.2,C
1995,12,8,19.7,C
1995,12,9,18.7,C
1995,12,10,20.7,C
1995,12,11,22.7,C
1995,12,12,24.2,#
1995,12,13,23.1,#
1995,12,14,21.2,C
1995,12,15,20.8,#
1995,12,16,20.2,C
1995,12,17,20.6,#
1995,12,18,18.2,C
1995,12,19,20.7,C
1995,12,20,21.0,#
1995,12,21,20.3,#
1995,12,22,20.6,C
1995,12,23,22.5,#
1995,12,24,21.9,C
1995,12,25,19.4,#
1995,12,26,17.8,#
1995,12,27,20.2,#
1995,12,28,19.2,#
1995,12,29,20.2,#
1995,12,30,19.4,#
1995,12,31,20.5,#
1996,1,1,22.0,#
1996,1,2,22.1,#
1996,1,3,24.7,#
1996,1,4,19.4,#
1996,1,5,23.0,#
1996,1,6,24.0,C
1996,1,7,24.4,#
1996,1,8,22.1,#
1996,1,9,17.2,#
1996,1,10,21.0,#
1996,1,11,19.1,#
1996,1,12,17.9,#
1996,1,13,21.2,#
1996,1,14,23.7,C
1996,1,15,25.5,#
1996,1,16,20.4,C
1996,1,17,19.6,C
1996,1,18,26.2,#
1996,1,19,17.5,#
1996,1,20,19.8,#
1996,1,21,19.4,C
1996,1,22,22.2,#
1996,1,23,21.4,#
1996,1,24,19.4,#
1996,1,25,24.2,#
1996,1,26,16.1,C
1996,1,27,16.7,C
1996,1,28,17.8,C
1996,1,29,19.7,C
1996,1,30,17.8,C
1996,1,31,21.7,#
1996,2,1,20.2,C
1996,2,2,19.3,#
1996,2,3,16.8,#
1996,2,4,20.9,C
1996,2,5,20.9,#
1996,2,6,17.6,#
1996,2,7,19.5,C
1996,2,8,22.7,C
1996,2,9,21.4,C
1996,2,10,18.9,C
1996,2,11,20.5,C
1996,2,12,21.9,#
1996,2,13,23.1,C
1996,2,14,23.4,#
1996,2,15,26.5,#
1996,2,16,21.8,#
1996,2,17,18.5,C
1996,2,18,14.3,C
1996,2,19,8.6,C
1996,2,20,7.6,C
1996,2,21,8.0,C
1996,2,22,10.0,C
1996,2,23,10.7,C
1996,2,24,11.9,C
1996,2,25,14.1,C
1996,2,26,14.0,#
1996,2,27,13.2,#
1996,2,28,15.6,C
1996,2,29,19.1,C
1996,3,1,23.6,C
1996,3,2,20.3,C
1996,3,3,20.9,#
1996,3,4,23.2,C
1996,3,5,23.0,C
1996,3,6,24.8,C
1996,3,7,26.4,C
1996,3,8,23.8,C
1996,3,9,21.0,#
1996,3,10,13.7,C
1996,3,11,15.3,C
1996,3,12,14.9,C
1996,3,13,17.6,C
1996,3,14,22.8,#
1996,3,15,26.1,C
1996,3,16,26.7,#
1996,3,17,28.4,C
1996,3,18,26.1,C
1996,3,19,17.4,C
1996,3,20,18.3,#
1996,3,21,20.2,#
1996,3,22,22.3,C
1996,3,23,20.2,C
1996,3,24,23.9,C
1996,3,25,25.7,#
1996,3,26,19.9,#
1996,3,27,24.0,#
1996,3,28,21.8,#
1996,3,29,25.4,C
1996,3,30,26.5,C
1996,3,31,27.2,C
1996,4,1,25.2,#
1996,4,2,15.3,#
1996,4,3,12.3,#
1996,4,4,15.0,C
1996,4,5,17.7,C
1996,4,6,22.8,C
1996,4,7,23.9,#
1996,4,8,21.1,C
1996,4,9,19.6,#
1996,4,10,20.0,C
1996,4,11,18.1,#
1996,4,12,17.9,C
1996,4,13,21.2,C
1996,4,14,22.9,C
1996,4,15,23.0,C
1996,4,16,25.7,C
1996,4,17,25.9,#
1996,4,18,27.4,C
1996,4,19,25.1,#
1996,4,20,21.6,C
1996,4,21,21.4,C
1996,4,22,22.1,#
1996,4,23,22.6,#
1996,4,24,24.1,#
1996,4,25,26.6,#
1996,4,26,27.1,C
1996,4,27,26.9,C
1996,4,28,27.1,C
1996,4,29,28.2,#
1996,4,30,26.0,C
1996,5,1,25.7,#
1996,5,2,28.8,#
1996,5,3,26.3,#
1996,5,4,29.2,#
1996,5,5,26.6,C
1996,5,6,22.1,#
1996,5,7,28.4,C
1996,5,8,25.4,C